Time,TemperatureF,DewpointF,PressureIn,WindDirection,WindDirectionDegrees,WindSpeedMPH,WindSpeedGustMPH,Humidity,HourlyPrecipIn,Conditions,Clouds,dailyrainin,SoftwareType,DateUTC
2013-01-09 00:00:00,71.0,67.3,30.19,ESE,111,0.0,1.0,88,0.00,,,0.00,Wunderground v.1.15,2013-01-09 05:00:00,
2013-01-09 00:03:00,71.0,67.6,30.19,ESE,110,0.0,1.0,89,0.00,,,0.00,Wunderground v.1.15,2013-01-09 05:03:00,
2013-01-09 00:05:00,71.0,67.6,30.19,ESE,111,0.0,1.0,89,0.00,,,0.00,Wunderground v.1.15,2013-01-09 05:05:00,
2013-01-09 00:11:00,71.1,67.7,30.19,ESE,111,0.0,0.0,89,0.00,,,0.00,Wunderground v.1.15,2013-01-09 05:11:00,
2013-01-09 00:16:00,71.1,67.7,30.19,ESE,111,0.0,1.0,89,0.00,,,0.00,Wunderground v.1.15,2013-01-09 05:16:00,
2013-01-09 00:22:00,71.1,67.7,30.19,ESE,111,0.0,0.0,89,0.00,,,0.00,Wunderground v.1.15,2013-01-09 05:22:00,
2013-01-09 00:27:00,71.2,67.8,30.19,ESE,111,0.0,0.0,89,0.00,,,0.00,Wunderground v.1.15,2013-01-09 05:27:00,
2013-01-09 00:32:00,71.2,67.8,30.19,ESE,110,0.0,0.0,89,0.00,,,0.00,Wunderground v.1.15,2013-01-09 05:32:00,
2013-01-09 00:38:00,71.2,67.8,30.19,ESE,110,0.0,1.0,89,0.00,,,0.00,Wunderground v.1.15,2013-01-09 05:38:00,
2013-01-09 00:43:00,71.3,67.9,30.19,ESE,110,0.0,0.0,89,0.00,,,0.00,Wunderground v.1.15,2013-01-09 05:43:00,
2013-01-09 00:48:00,71.3,67.9,30.19,ESE,110,0.0,0.0,89,0.00,,,0.00,Wunderground v.1.15,2013-01-09 05:48:00,
2013-01-09 00:53:00,71.3,67.9,30.19,ESE,110,0.0,0.0,89,0.00,,,0.00,Wunderground v.1.15,2013-01-09 05:53:00,
2013-01-09 00:58:00,71.3,67.9,30.19,ESE,110,0.0,0.0,89,0.00,,,0.00,Wunderground v.1.15,2013-01-09 05:58:00,
2013-01-09 01:03:00,71.3,67.9,30.20,ESE,110,0.0,2.0,89,0.00,,,0.00,Wunderground v.1.15,2013-01-09 06:03:00,
2013-01-09 01:09:00,71.3,67.9,30.20,ESE,110,0.0,2.0,89,0.00,,,0.00,Wunderground v.1.15,2013-01-09 06:09:00,
2013-01-09 01:14:00,71.3,67.9,30.20,ESE,110,0.0,0.0,89,0.00,,,0.00,Wunderground v.1.15,2013-01-09 06:14:00,
2013-01-09 01:19:00,71.3,67.9,30.20,ESE,110,0.0,1.0,89,0.00,,,0.00,Wunderground v.1.15,2013-01-09 06:19:00,
2013-01-09 01:25:00,71.4,68.3,30.20,ESE,110,0.0,0.0,90,0.00,,,0.00,Wunderground v.1.15,2013-01-09 06:25:00,
2013-01-09 01:31:00,71.3,67.9,30.20,ESE,110,0.0,0.0,89,0.00,,,0.00,Wunderground v.1.15,2013-01-09 06:31:00,
2013-01-09 01:36:00,71.3,68.2,30.20,ESE,110,0.0,0.0,90,0.00,,,0.00,Wunderground v.1.15,2013-01-09 06:36:00,
2013-01-09 01:41:00,71.3,68.2,30.20,ESE,110,0.0,0.0,90,0.00,,,0.00,Wunderground v.1.15,2013-01-09 06:41:00,
2013-01-09 01:46:00,71.2,68.1,30.20,ESE,110,0.0,0.0,90,0.00,,,0.00,Wunderground v.1.15,2013-01-09 06:46:00,
2013-01-09 01:51:00,71.1,68.0,30.20,ESE,110,0.0,0.0,90,0.00,,,0.00,Wunderground v.1.15,2013-01-09 06:51:00,
2013-01-09 01:57:00,71.0,67.9,30.20,ESE,110,0.0,0.0,90,0.00,,,0.00,Wunderground v.1.15,2013-01-09 06:57:00,
2013-01-09 02:02:00,70.9,67.8,30.20,ESE,110,0.0,2.0,90,0.00,,,0.00,Wunderground v.1.15,2013-01-09 07:02:00,
2013-01-09 02:07:00,70.8,67.7,30.20,ESE,110,0.0,2.0,90,0.00,,,0.00,Wunderground v.1.15,2013-01-09 07:07:00,
2013-01-09 02:12:00,70.6,67.5,30.20,ESE,110,0.0,0.0,90,0.00,,,0.00,Wunderground v.1.15,2013-01-09 07:12:00,
2013-01-09 02:17:00,70.4,67.6,30.20,ESE,110,0.0,0.0,91,0.00,,,0.00,Wunderground v.1.15,2013-01-09 07:17:00,
2013-01-09 02:23:00,70.3,67.5,30.20,ESE,110,0.0,0.0,91,0.00,,,0.00,Wunderground v.1.15,2013-01-09 07:23:00,
2013-01-09 02:28:00,70.2,67.4,30.20,ESE,110,0.0,0.0,91,0.00,,,0.00,Wunderground v.1.15,2013-01-09 07:28:00,
2013-01-09 02:33:00,70.1,67.3,30.20,ESE,110,0.0,0.0,91,0.00,,,0.00,Wunderground v.1.15,2013-01-09 07:33:00,
2013-01-09 02:39:00,70.0,67.6,30.19,ESE,110,0.0,0.0,92,0.00,,,0.00,Wunderground v.1.15,2013-01-09 07:39:00,
2013-01-09 02:44:00,69.8,67.4,30.19,ESE,110,0.0,0.0,92,0.00,,,0.00,Wunderground v.1.15,2013-01-09 07:44:00,
2013-01-09 02:49:00,69.7,67.3,30.19,ESE,110,0.0,0.0,92,0.00,,,0.00,Wunderground v.1.15,2013-01-09 07:49:00,
2013-01-09 02:54:00,69.6,67.2,30.19,ESE,110,0.0,0.0,92,0.00,,,0.00,Wunderground v.1.15,2013-01-09 07:54:00,
2013-01-09 02:59:00,69.5,67.1,30.19,ESE,110,0.0,0.0,92,0.00,,,0.00,Wunderground v.1.15,2013-01-09 07:59:00,
2013-01-09 03:05:00,69.3,66.9,30.19,ESE,110,0.0,0.0,92,0.00,,,0.00,Wunderground v.1.15,2013-01-09 08:05:00,
2013-01-09 03:11:00,69.2,66.8,30.19,ESE,110,0.0,0.0,92,0.00,,,0.00,Wunderground v.1.15,2013-01-09 08:11:00,
2013-01-09 03:16:00,69.1,67.0,30.19,ESE,110,0.0,0.0,93,0.00,,,0.00,Wunderground v.1.15,2013-01-09 08:16:00,
2013-01-09 03:21:00,69.0,66.9,30.19,ESE,110,0.0,0.0,93,0.00,,,0.00,Wunderground v.1.15,2013-01-09 08:21:00,
2013-01-09 03:27:00,68.9,66.8,30.19,ESE,110,0.0,0.0,93,0.00,,,0.00,Wunderground v.1.15,2013-01-09 08:27:00,
2013-01-09 03:33:00,68.8,67.0,30.18,ESE,110,0.0,0.0,94,0.00,,,0.00,Wunderground v.1.15,2013-01-09 08:33:00,
2013-01-09 03:38:00,68.7,66.9,30.18,ESE,110,0.0,0.0,94,0.00,,,0.00,Wunderground v.1.15,2013-01-09 08:38:00,
2013-01-09 03:43:00,68.6,66.8,30.19,ESE,110,0.0,0.0,94,0.00,,,0.00,Wunderground v.1.15,2013-01-09 08:43:00,
2013-01-09 03:48:00,68.6,66.8,30.19,ESE,110,0.0,0.0,94,0.00,,,0.00,Wunderground v.1.15,2013-01-09 08:48:00,
2013-01-09 03:53:00,68.6,66.8,30.19,ESE,110,0.0,0.0,94,0.00,,,0.00,Wunderground v.1.15,2013-01-09 08:53:00,
2013-01-09 03:58:00,68.5,66.7,30.19,ESE,110,0.0,0.0,94,0.00,,,0.00,Wunderground v.1.15,2013-01-09 08:58:00,
2013-01-09 04:03:00,68.4,66.6,30.19,ESE,110,0.0,0.0,94,0.00,,,0.00,Wunderground v.1.15,2013-01-09 09:03:00,
2013-01-09 04:08:00,68.4,66.6,30.19,ESE,110,0.0,0.0,94,0.00,,,0.00,Wunderground v.1.15,2013-01-09 09:08:00,
2013-01-09 04:13:00,68.4,66.6,30.18,ESE,110,0.0,0.0,94,0.00,,,0.00,Wunderground v.1.15,2013-01-09 09:13:00,
2013-01-09 04:18:00,68.4,66.9,30.19,ESE,110,0.0,0.0,95,0.00,,,0.00,Wunderground v.1.15,2013-01-09 09:18:00,
2013-01-09 04:23:00,68.4,66.9,30.19,ESE,110,0.0,0.0,95,0.00,,,0.00,Wunderground v.1.15,2013-01-09 09:23:00,
2013-01-09 04:28:00,68.3,66.8,30.19,ESE,110,0.0,0.0,95,0.00,,,0.00,Wunderground v.1.15,2013-01-09 09:28:00,
2013-01-09 04:33:00,68.3,66.8,30.19,ESE,110,0.0,0.0,95,0.00,,,0.00,Wunderground v.1.15,2013-01-09 09:33:00,
2013-01-09 04:38:00,68.3,66.8,30.19,ESE,110,0.0,0.0,95,0.00,,,0.00,Wunderground v.1.15,2013-01-09 09:38:00,
2013-01-09 04:43:00,68.3,66.8,30.18,ESE,110,0.0,0.0,95,0.00,,,0.00,Wunderground v.1.15,2013-01-09 09:43:00,
2013-01-09 04:48:00,68.3,66.8,30.18,ESE,110,0.0,0.0,95,0.00,,,0.00,Wunderground v.1.15,2013-01-09 09:48:00,
2013-01-09 04:54:00,68.3,66.8,30.18,ESE,110,0.0,0.0,95,0.00,,,0.00,Wunderground v.1.15,2013-01-09 09:54:00,
2013-01-09 04:59:00,68.3,66.8,30.18,ESE,110,0.0,0.0,95,0.00,,,0.00,Wunderground v.1.15,2013-01-09 09:59:00,
2013-01-09 05:04:00,68.2,66.7,30.19,ESE,110,0.0,0.0,95,0.00,,,0.00,Wunderground v.1.15,2013-01-09 10:04:00,
2013-01-09 05:09:00,68.2,67.0,30.19,ESE,110,0.0,0.0,96,0.00,,,0.00,Wunderground v.1.15,2013-01-09 10:09:00,
2013-01-09 05:15:00,68.2,67.0,30.19,ESE,110,0.0,0.0,96,0.00,,,0.00,Wunderground v.1.15,2013-01-09 10:15:00,
2013-01-09 05:20:00,68.2,67.0,30.19,ESE,110,0.0,0.0,96,0.00,,,0.00,Wunderground v.1.15,2013-01-09 10:20:00,
2013-01-09 05:26:00,68.2,67.0,30.19,ESE,110,0.0,0.0,96,0.00,,,0.00,Wunderground v.1.15,2013-01-09 10:26:00,
2013-01-09 05:31:00,68.3,67.1,30.19,ESE,110,0.0,0.0,96,0.00,,,0.00,Wunderground v.1.15,2013-01-09 10:31:00,
2013-01-09 05:36:00,68.3,67.1,30.19,ESE,110,0.0,0.0,96,0.00,,,0.00,Wunderground v.1.15,2013-01-09 10:36:00,
2013-01-09 05:41:00,68.4,67.2,30.19,ESE,110,0.0,0.0,96,0.00,,,0.00,Wunderground v.1.15,2013-01-09 10:41:00,
2013-01-09 05:46:00,68.4,67.2,30.19,ESE,110,0.0,0.0,96,0.00,,,0.00,Wunderground v.1.15,2013-01-09 10:46:00,
2013-01-09 05:52:00,68.5,67.3,30.19,ESE,110,0.0,0.0,96,0.00,,,0.00,Wunderground v.1.15,2013-01-09 10:52:00,
2013-01-09 05:57:00,68.5,67.3,30.20,ESE,110,0.0,0.0,96,0.00,,,0.00,Wunderground v.1.15,2013-01-09 10:57:00,
2013-01-09 06:02:00,68.5,67.3,30.20,ESE,110,0.0,0.0,96,0.00,,,0.00,Wunderground v.1.15,2013-01-09 11:02:00,
2013-01-09 06:07:00,68.6,67.4,30.20,ESE,110,0.0,0.0,96,0.00,,,0.00,Wunderground v.1.15,2013-01-09 11:07:00,
2013-01-09 06:12:00,68.6,67.4,30.20,ESE,110,0.0,0.0,96,0.00,,,0.00,Wunderground v.1.15,2013-01-09 11:12:00,
2013-01-09 06:17:00,68.6,67.4,30.20,ESE,110,0.0,0.0,96,0.00,,,0.00,Wunderground v.1.15,2013-01-09 11:17:00,
2013-01-09 06:23:00,68.7,67.5,30.21,ESE,110,0.0,0.0,96,0.00,,,0.00,Wunderground v.1.15,2013-01-09 11:23:00,
2013-01-09 06:28:00,68.7,67.5,30.21,ESE,110,0.0,0.0,96,0.00,,,0.00,Wunderground v.1.15,2013-01-09 11:28:00,
2013-01-09 06:33:00,68.8,67.6,30.21,ESE,110,0.0,0.0,96,0.00,,,0.00,Wunderground v.1.15,2013-01-09 11:33:00,
2013-01-09 06:38:00,68.8,67.6,30.21,ESE,110,0.0,0.0,96,0.00,,,0.00,Wunderground v.1.15,2013-01-09 11:38:00,
2013-01-09 06:44:00,68.9,67.7,30.21,ESE,110,0.0,0.0,96,0.00,,,0.00,Wunderground v.1.15,2013-01-09 11:44:00,
2013-01-09 06:49:00,68.9,67.7,30.21,ESE,111,0.0,0.0,96,0.00,,,0.00,Wunderground v.1.15,2013-01-09 11:49:00,
2013-01-09 06:54:00,68.8,67.6,30.21,ESE,111,0.0,0.0,96,0.00,,,0.00,Wunderground v.1.15,2013-01-09 11:54:00,
2013-01-09 06:59:00,68.7,67.5,30.22,ESE,111,0.0,0.0,96,0.00,,,0.00,Wunderground v.1.15,2013-01-09 11:59:00,
2013-01-09 07:05:00,68.6,67.4,30.22,ESE,111,0.0,1.0,96,0.00,,,0.00,Wunderground v.1.15,2013-01-09 12:05:00,
2013-01-09 07:11:00,68.6,67.4,30.22,ESE,110,0.0,0.0,96,0.00,,,0.00,Wunderground v.1.15,2013-01-09 12:11:00,
2013-01-09 07:16:00,68.5,67.3,30.22,ESE,111,0.0,0.0,96,0.00,,,0.00,Wunderground v.1.15,2013-01-09 12:16:00,
2013-01-09 07:22:00,68.4,67.2,30.22,ESE,110,0.0,0.0,96,0.00,,,0.00,Wunderground v.1.15,2013-01-09 12:22:00,
2013-01-09 07:27:00,68.4,67.2,30.22,ESE,110,0.0,0.0,96,0.00,,,0.00,Wunderground v.1.15,2013-01-09 12:27:00,
2013-01-09 07:32:00,68.3,67.1,30.22,ESE,111,0.0,0.0,96,0.00,,,0.00,Wunderground v.1.15,2013-01-09 12:32:00,
2013-01-09 07:38:00,68.3,67.1,30.23,ESE,111,0.0,0.0,96,0.00,,,0.00,Wunderground v.1.15,2013-01-09 12:38:00,
2013-01-09 07:43:00,68.3,67.1,30.23,ESE,111,0.0,0.0,96,0.00,,,0.00,Wunderground v.1.15,2013-01-09 12:43:00,
2013-01-09 07:48:00,68.3,67.1,30.23,ESE,111,0.0,0.0,96,0.00,,,0.00,Wunderground v.1.15,2013-01-09 12:48:00,
2013-01-09 07:53:00,68.3,67.1,30.24,ESE,111,0.0,0.0,96,0.00,,,0.00,Wunderground v.1.15,2013-01-09 12:53:00,
2013-01-09 07:58:00,68.4,67.5,30.24,ESE,111,0.0,0.0,97,0.00,,,0.00,Wunderground v.1.15,2013-01-09 12:58:00,
2013-01-09 08:04:00,68.5,67.6,30.24,ESE,102,0.0,0.0,97,0.00,,,0.00,Wunderground v.1.15,2013-01-09 13:04:00,
2013-01-09 08:09:00,68.6,67.7,30.24,East,90,0.0,0.0,97,0.00,,,0.00,Wunderground v.1.15,2013-01-09 13:09:00,
2013-01-09 08:14:00,68.7,67.8,30.25,East,90,0.0,0.0,97,0.00,,,0.00,Wunderground v.1.15,2013-01-09 13:14:00,
2013-01-09 08:19:00,68.8,67.9,30.25,East,90,0.0,0.0,97,0.00,,,0.00,Wunderground v.1.15,2013-01-09 13:19:00,
2013-01-09 08:25:00,68.9,68.0,30.25,East,90,0.0,2.0,97,0.00,,,0.00,Wunderground v.1.15,2013-01-09 13:25:00,
2013-01-09 08:30:00,69.1,68.2,30.25,East,87,1.0,1.0,97,0.00,,,0.00,Wunderground v.1.15,2013-01-09 13:30:00,
2013-01-09 08:35:00,69.2,68.3,30.26,East,88,1.0,2.0,97,0.00,,,0.00,Wunderground v.1.15,2013-01-09 13:35:00,
2013-01-09 08:41:00,69.4,68.2,30.26,East,88,1.0,1.0,96,0.00,,,0.00,Wunderground v.1.15,2013-01-09 13:41:00,
2013-01-09 08:46:00,69.6,68.4,30.26,East,88,1.0,2.0,96,0.00,,,0.00,Wunderground v.1.15,2013-01-09 13:46:00,
2013-01-09 08:51:00,69.7,68.5,30.26,East,88,1.0,2.0,96,0.00,,,0.00,Wunderground v.1.15,2013-01-09 13:51:00,
2013-01-09 08:57:00,69.8,68.6,30.27,East,89,1.0,2.0,96,0.00,,,0.00,Wunderground v.1.15,2013-01-09 13:57:00,
2013-01-09 09:02:00,70.0,68.8,30.27,East,92,1.0,2.0,96,0.00,,,0.00,Wunderground v.1.15,2013-01-09 14:02:00,
2013-01-09 09:07:00,70.2,69.0,30.27,East,96,2.0,4.0,96,0.00,,,0.00,Wunderground v.1.15,2013-01-09 14:07:00,
2013-01-09 09:13:00,70.5,69.3,30.27,East,94,1.0,2.0,96,0.00,,,0.00,Wunderground v.1.15,2013-01-09 14:13:00,
2013-01-09 09:18:00,70.8,69.6,30.27,East,96,1.0,2.0,96,0.00,,,0.00,Wunderground v.1.15,2013-01-09 14:18:00,
2013-01-09 09:23:00,71.2,69.7,30.27,East,93,1.0,3.0,95,0.00,,,0.00,Wunderground v.1.15,2013-01-09 14:23:00,
2013-01-09 09:29:00,71.7,69.9,30.27,ESE,122,2.0,6.0,94,0.00,,,0.00,Wunderground v.1.15,2013-01-09 14:29:00,
2013-01-09 09:34:00,72.2,70.4,30.28,ESE,107,2.0,5.0,94,0.00,,,0.00,Wunderground v.1.15,2013-01-09 14:34:00,
2013-01-09 09:39:00,72.8,70.3,30.28,ESE,102,1.0,5.0,92,0.00,,,0.00,Wunderground v.1.15,2013-01-09 14:39:00,
2013-01-09 09:44:00,73.3,70.5,30.28,East,91,1.0,4.0,91,0.00,,,0.00,Wunderground v.1.15,2013-01-09 14:44:00,
2013-01-09 09:49:00,73.7,70.6,30.28,ESE,115,2.0,4.0,90,0.00,,,0.00,Wunderground v.1.15,2013-01-09 14:49:00,
2013-01-09 09:55:00,74.0,70.9,30.28,ESE,108,1.0,5.0,90,0.00,,,0.00,Wunderground v.1.15,2013-01-09 14:55:00,
2013-01-09 10:00:00,74.4,70.9,30.28,ESE,123,1.0,3.0,89,0.00,,,0.00,Wunderground v.1.15,2013-01-09 15:00:00,
2013-01-09 10:06:00,74.9,71.1,30.29,ESE,115,2.0,4.0,88,0.00,,,0.00,Wunderground v.1.15,2013-01-09 15:06:00,
2013-01-09 10:12:00,75.0,70.9,30.29,East,95,3.0,3.0,87,0.00,,,0.00,Wunderground v.1.15,2013-01-09 15:12:00,
2013-01-09 10:17:00,75.4,70.9,30.29,East,86,2.0,3.0,86,0.00,,,0.00,Wunderground v.1.15,2013-01-09 15:17:00,
2013-01-09 10:22:00,75.6,71.1,30.29,ESE,118,1.0,3.0,86,0.00,,,0.00,Wunderground v.1.15,2013-01-09 15:22:00,
2013-01-09 10:27:00,75.9,71.1,30.29,SE,130,2.0,3.0,85,0.00,,,0.00,Wunderground v.1.15,2013-01-09 15:27:00,
2013-01-09 10:32:00,76.4,71.6,30.29,ESE,116,2.0,3.0,85,0.00,,,0.00,Wunderground v.1.15,2013-01-09 15:32:00,
2013-01-09 10:37:00,76.7,71.5,30.29,South,179,3.0,7.0,84,0.00,,,0.00,Wunderground v.1.15,2013-01-09 15:37:00,
2013-01-09 10:42:00,76.9,71.3,30.29,ESE,120,3.0,4.0,83,0.00,,,0.00,Wunderground v.1.15,2013-01-09 15:42:00,
2013-01-09 10:47:00,77.3,71.7,30.29,ESE,111,3.0,5.0,83,0.00,,,0.00,Wunderground v.1.15,2013-01-09 15:47:00,
2013-01-09 10:52:00,77.4,71.1,30.29,ESE,110,3.0,7.0,81,0.00,,,0.00,Wunderground v.1.15,2013-01-09 15:52:00,
2013-01-09 10:57:00,77.5,71.2,30.29,ESE,103,4.0,7.0,81,0.00,,,0.00,Wunderground v.1.15,2013-01-09 15:57:00,
2013-01-09 11:02:00,77.9,71.2,30.28,SSW,196,3.0,6.0,80,0.00,,,0.00,Wunderground v.1.15,2013-01-09 16:02:00,
2013-01-09 11:07:00,78.0,71.0,30.28,ESE,117,4.0,7.0,79,0.00,,,0.00,Wunderground v.1.15,2013-01-09 16:07:00,
2013-01-09 11:14:00,78.2,71.5,30.28,ESE,103,4.0,4.0,80,0.00,,,0.00,Wunderground v.1.15,2013-01-09 16:14:00,
2013-01-09 11:19:00,78.8,71.4,30.28,East,97,2.0,8.0,78,0.00,,,0.00,Wunderground v.1.15,2013-01-09 16:19:00,
2013-01-09 11:24:00,79.1,71.3,30.28,ESE,122,2.0,5.0,77,0.00,,,0.00,Wunderground v.1.15,2013-01-09 16:24:00,
2013-01-09 11:29:00,79.2,71.4,30.28,SSW,194,2.0,5.0,77,0.00,,,0.00,Wunderground v.1.15,2013-01-09 16:29:00,
2013-01-09 11:34:00,79.3,71.1,30.28,SSE,163,2.0,3.0,76,0.00,,,0.00,Wunderground v.1.15,2013-01-09 16:34:00,
2013-01-09 11:39:00,79.5,71.3,30.27,SSE,168,2.0,7.0,76,0.00,,,0.00,Wunderground v.1.15,2013-01-09 16:39:00,
2013-01-09 11:44:00,79.9,71.7,30.27,South,182,3.0,4.0,76,0.00,,,0.00,Wunderground v.1.15,2013-01-09 16:44:00,
2013-01-09 11:49:00,80.3,71.6,30.27,SSE,162,3.0,5.0,75,0.00,,,0.00,Wunderground v.1.15,2013-01-09 16:49:00,
2013-01-09 11:54:00,80.6,71.5,30.27,ESE,105,3.0,5.0,74,0.00,,,0.00,Wunderground v.1.15,2013-01-09 16:54:00,
2013-01-09 11:59:00,80.6,71.5,30.26,East,84,3.0,5.0,74,0.00,,,0.00,Wunderground v.1.15,2013-01-09 16:59:00,
2013-01-09 12:06:00,81.0,71.5,30.26,ENE,78,3.0,9.0,73,0.00,,,0.00,Wunderground v.1.15,2013-01-09 17:06:00,
2013-01-09 12:11:00,80.9,71.0,30.26,ESE,118,3.0,7.0,72,0.00,,,0.00,Wunderground v.1.15,2013-01-09 17:11:00,
2013-01-09 12:16:00,81.0,71.5,30.26,ESE,112,3.0,7.0,73,0.00,,,0.00,Wunderground v.1.15,2013-01-09 17:16:00,
2013-01-09 12:21:00,81.4,71.1,30.25,SE,130,2.0,4.0,71,0.00,,,0.00,Wunderground v.1.15,2013-01-09 17:21:00,
2013-01-09 12:26:00,81.5,71.2,30.25,ENE,74,2.0,5.0,71,0.00,,,0.00,Wunderground v.1.15,2013-01-09 17:26:00,
2013-01-09 12:31:00,81.6,70.9,30.25,East,80,3.0,3.0,70,0.00,,,0.00,Wunderground v.1.15,2013-01-09 17:31:00,
2013-01-09 12:36:00,82.0,70.8,30.25,ESE,121,2.0,4.0,69,0.00,,,0.00,Wunderground v.1.15,2013-01-09 17:36:00,
2013-01-09 12:41:00,82.1,71.3,30.24,ENE,76,2.0,3.0,70,0.00,,,0.00,Wunderground v.1.15,2013-01-09 17:41:00,
2013-01-09 12:46:00,82.3,70.7,30.24,SE,137,2.0,4.0,68,0.00,,,0.00,Wunderground v.1.15,2013-01-09 17:46:00,
2013-01-09 12:51:00,82.4,70.3,30.24,SE,124,2.0,6.0,67,0.00,,,0.00,Wunderground v.1.15,2013-01-09 17:51:00,
2013-01-09 12:56:00,82.4,69.9,30.24,ESE,119,3.0,9.0,66,0.00,,,0.00,Wunderground v.1.15,2013-01-09 17:56:00,
2013-01-09 13:01:00,82.5,70.0,30.23,SSE,163,3.0,9.0,66,0.00,,,0.00,Wunderground v.1.15,2013-01-09 18:01:00,
2013-01-09 13:06:00,82.9,69.9,30.24,ESE,104,3.0,9.0,65,0.00,,,0.00,Wunderground v.1.15,2013-01-09 18:06:00,
2013-01-09 13:11:00,83.0,70.0,30.23,SE,126,2.0,3.0,65,0.00,,,0.00,Wunderground v.1.15,2013-01-09 18:11:00,
2013-01-09 13:16:00,83.2,69.8,30.23,SSE,152,2.0,4.0,64,0.00,,,0.00,Wunderground v.1.15,2013-01-09 18:16:00,
2013-01-09 13:22:00,83.3,69.8,30.23,ESE,116,2.0,5.0,64,0.00,,,0.00,Wunderground v.1.15,2013-01-09 18:22:00,
2013-01-09 13:27:00,83.8,70.3,30.23,ESE,118,1.0,5.0,64,0.00,,,0.00,Wunderground v.1.15,2013-01-09 18:27:00,
2013-01-09 13:33:00,84.3,69.4,30.23,SSW,193,1.0,2.0,61,0.00,,,0.00,Wunderground v.1.15,2013-01-09 18:33:00,
2013-01-09 13:38:00,84.3,69.9,30.22,ESE,111,1.0,5.0,62,0.00,,,0.00,Wunderground v.1.15,2013-01-09 18:38:00,
2013-01-09 13:41:00,84.3,69.4,30.22,ESE,109,1.0,1.0,61,0.00,,,0.00,Wunderground v.1.15,2013-01-09 18:41:00,
2013-01-09 13:42:00,84.3,69.4,30.22,SE,128,1.0,3.0,61,0.00,,,0.00,Wunderground v.1.15,2013-01-09 18:42:00,
2013-01-09 13:43:00,84.3,69.4,30.22,ESE,111,1.0,3.0,61,0.00,,,0.00,Wunderground v.1.15,2013-01-09 18:43:00,
2013-01-09 13:44:00,84.3,69.4,30.22,ESE,112,1.0,3.0,61,0.00,,,0.00,Wunderground v.1.15,2013-01-09 18:44:00,
2013-01-09 13:47:00,84.4,69.5,30.22,SSW,207,2.0,6.0,61,0.00,,,0.00,Wunderground v.1.15,2013-01-09 18:47:00,
2013-01-09 13:48:00,84.3,69.4,30.22,East,88,2.0,6.0,61,0.00,,,0.00,Wunderground v.1.15,2013-01-09 18:48:00,
2013-01-09 13:49:00,84.2,69.3,30.22,SSE,167,2.0,6.0,61,0.00,,,0.00,Wunderground v.1.15,2013-01-09 18:49:00,
2013-01-09 13:50:00,84.2,69.3,30.22,South,185,2.0,5.0,61,0.00,,,0.00,Wunderground v.1.15,2013-01-09 18:50:00,
2013-01-09 13:55:00,84.0,69.1,30.22,SSE,160,2.0,5.0,61,0.00,,,0.00,Wunderground v.1.15,2013-01-09 18:55:00,
2013-01-09 14:00:00,84.3,69.4,30.22,East,100,1.0,1.0,61,0.00,,,0.00,Wunderground v.1.15,2013-01-09 19:00:00,
2013-01-09 14:01:00,84.3,68.9,30.22,ESE,122,1.0,3.0,60,0.00,,,0.00,Wunderground v.1.15,2013-01-09 19:01:00,
2013-01-09 14:06:00,84.6,69.2,30.22,South,186,1.0,11.0,60,0.00,,,0.00,Wunderground v.1.15,2013-01-09 19:06:00,
2013-01-09 14:11:00,84.7,68.8,30.21,ESE,109,1.0,1.0,59,0.00,,,0.00,Wunderground v.1.15,2013-01-09 19:11:00,
2013-01-09 14:16:00,85.0,69.1,30.21,South,186,1.0,1.0,59,0.00,,,0.00,Wunderground v.1.15,2013-01-09 19:16:00,
2013-01-09 14:22:00,85.3,68.8,30.21,East,96,0.0,1.0,58,0.00,,,0.00,Wunderground v.1.15,2013-01-09 19:22:00,
2013-01-09 14:27:00,85.4,68.9,30.21,SSE,151,0.0,2.0,58,0.00,,,0.00,Wunderground v.1.15,2013-01-09 19:27:00,
2013-01-09 14:33:00,85.5,69.0,30.21,East,94,1.0,1.0,58,0.00,,,0.00,Wunderground v.1.15,2013-01-09 19:33:00,
2013-01-09 14:39:00,85.6,68.6,30.21,ESE,122,1.0,6.0,57,0.00,,,0.00,Wunderground v.1.15,2013-01-09 19:39:00,
2013-01-09 14:44:00,85.6,68.6,30.21,ESE,107,1.0,2.0,57,0.00,,,0.00,Wunderground v.1.15,2013-01-09 19:44:00,
2013-01-09 14:50:00,85.4,68.9,30.21,East,90,1.0,2.0,58,0.00,,,0.00,Wunderground v.1.15,2013-01-09 19:50:00,
2013-01-09 14:55:00,85.5,68.5,30.21,East,92,0.0,2.0,57,0.00,,,0.00,Wunderground v.1.15,2013-01-09 19:55:00,
2013-01-09 15:00:00,85.5,68.5,30.21,East,94,0.0,0.0,57,0.00,,,0.00,Wunderground v.1.15,2013-01-09 20:00:00,
2013-01-09 15:06:00,85.4,68.4,30.21,ESE,118,1.0,6.0,57,0.00,,,0.00,Wunderground v.1.15,2013-01-09 20:06:00,
2013-01-09 15:11:00,85.1,68.2,30.21,SE,124,2.0,2.0,57,0.00,,,0.00,Wunderground v.1.15,2013-01-09 20:11:00,
2013-01-09 15:17:00,84.9,68.5,30.21,ESE,119,1.0,2.0,58,0.00,,,0.00,Wunderground v.1.15,2013-01-09 20:17:00,
2013-01-09 15:22:00,85.1,68.7,30.21,ESE,117,1.0,1.0,58,0.00,,,0.00,Wunderground v.1.15,2013-01-09 20:22:00,
2013-01-09 15:28:00,85.0,68.1,30.21,ESE,114,1.0,5.0,57,0.00,,,0.00,Wunderground v.1.15,2013-01-09 20:28:00,
2013-01-09 15:33:00,84.9,68.0,30.21,ESE,113,1.0,1.0,57,0.00,,,0.00,Wunderground v.1.15,2013-01-09 20:33:00,
2013-01-09 15:39:00,84.7,67.8,30.21,SE,140,1.0,2.0,57,0.00,,,0.00,Wunderground v.1.15,2013-01-09 20:39:00,
2013-01-09 15:45:00,84.5,68.1,30.21,ESE,113,1.0,5.0,58,0.00,,,0.00,Wunderground v.1.15,2013-01-09 20:45:00,
2013-01-09 15:50:00,84.5,68.1,30.21,SE,142,1.0,1.0,58,0.00,,,0.00,Wunderground v.1.15,2013-01-09 20:50:00,
2013-01-09 15:56:00,84.7,68.3,30.21,SE,142,0.0,1.0,58,0.00,,,0.00,Wunderground v.1.15,2013-01-09 20:56:00,
2013-01-09 16:01:00,84.8,67.9,30.21,SE,136,0.0,3.0,57,0.00,,,0.00,Wunderground v.1.15,2013-01-09 21:01:00,
2013-01-09 16:07:00,84.8,67.9,30.21,SE,134,0.0,3.0,57,0.00,,,0.00,Wunderground v.1.15,2013-01-09 21:07:00,
2013-01-09 16:12:00,84.7,67.8,30.21,ESE,110,0.0,0.0,57,0.00,,,0.00,Wunderground v.1.15,2013-01-09 21:12:00,
2013-01-09 16:18:00,84.4,67.5,30.21,ESE,117,0.0,1.0,57,0.00,,,0.00,Wunderground v.1.15,2013-01-09 21:18:00,
2013-01-09 16:23:00,84.2,67.3,30.21,ESE,115,0.0,0.0,57,0.00,,,0.00,Wunderground v.1.15,2013-01-09 21:23:00,
2013-01-09 16:29:00,83.9,67.5,30.21,ESE,115,1.0,2.0,58,0.00,,,0.00,Wunderground v.1.15,2013-01-09 21:29:00,
2013-01-09 16:34:00,83.8,67.9,30.21,ESE,116,0.0,1.0,59,0.00,,,0.00,Wunderground v.1.15,2013-01-09 21:34:00,
2013-01-09 16:40:00,83.5,67.7,30.21,ESE,118,0.0,0.0,59,0.00,,,0.00,Wunderground v.1.15,2013-01-09 21:40:00,
2013-01-09 16:45:00,83.3,68.0,30.21,ESE,118,0.0,1.0,60,0.00,,,0.00,Wunderground v.1.15,2013-01-09 21:45:00,
2013-01-09 16:51:00,83.1,68.3,30.21,ESE,118,0.0,3.0,61,0.00,,,0.00,Wunderground v.1.15,2013-01-09 21:51:00,
2013-01-09 16:56:00,83.0,68.2,30.21,ESE,119,0.0,3.0,61,0.00,,,0.00,Wunderground v.1.15,2013-01-09 21:56:00,
2013-01-09 17:01:00,82.8,68.0,30.21,ESE,119,0.0,4.0,61,0.00,,,0.00,Wunderground v.1.15,2013-01-09 22:01:00,
2013-01-09 17:07:00,82.5,67.7,30.21,ESE,118,0.0,4.0,61,0.00,,,0.00,Wunderground v.1.15,2013-01-09 22:07:00,
2013-01-09 17:13:00,82.3,67.5,30.21,ESE,118,0.0,0.0,61,0.00,,,0.00,Wunderground v.1.15,2013-01-09 22:13:00,
2013-01-09 17:18:00,82.1,67.3,30.21,ESE,118,0.0,0.0,61,0.00,,,0.00,Wunderground v.1.15,2013-01-09 22:18:00,
2013-01-09 17:23:00,81.8,67.0,30.21,ESE,118,0.0,0.0,61,0.00,,,0.00,Wunderground v.1.15,2013-01-09 22:23:00,
2013-01-09 17:29:00,81.4,67.1,30.21,ESE,121,0.0,0.0,62,0.00,,,0.00,Wunderground v.1.15,2013-01-09 22:29:00,
2013-01-09 17:35:00,81.2,66.9,30.21,ESE,121,0.0,0.0,62,0.00,,,0.00,Wunderground v.1.15,2013-01-09 22:35:00,
2013-01-09 17:40:00,80.9,66.7,30.21,ESE,122,0.0,0.0,62,0.00,,,0.00,Wunderground v.1.15,2013-01-09 22:40:00,
2013-01-09 17:45:00,80.6,66.8,30.21,ESE,123,0.0,0.0,63,0.00,,,0.00,Wunderground v.1.15,2013-01-09 22:45:00,
2013-01-09 17:51:00,80.2,66.5,30.21,SE,126,0.0,0.0,63,0.00,,,0.00,Wunderground v.1.15,2013-01-09 22:51:00,
2013-01-09 17:56:00,80.0,66.3,30.21,SE,126,0.0,0.0,63,0.00,,,0.00,Wunderground v.1.15,2013-01-09 22:56:00,
2013-01-09 18:02:00,79.7,66.4,30.22,SE,126,0.0,3.0,64,0.00,,,0.00,Wunderground v.1.15,2013-01-09 23:02:00,
2013-01-09 18:09:00,79.5,66.3,30.22,SE,126,0.0,3.0,64,0.00,,,0.00,Wunderground v.1.15,2013-01-09 23:09:00,
2013-01-09 18:14:00,79.3,66.1,30.22,SE,126,0.0,0.0,64,0.00,,,0.00,Wunderground v.1.15,2013-01-09 23:14:00,
2013-01-09 18:20:00,79.1,66.3,30.23,SE,126,0.0,0.0,65,0.00,,,0.00,Wunderground v.1.15,2013-01-09 23:20:00,
2013-01-09 18:25:00,79.0,66.2,30.23,SE,126,0.0,0.0,65,0.00,,,0.00,Wunderground v.1.15,2013-01-09 23:25:00,
2013-01-09 18:30:00,78.8,66.5,30.23,SE,126,0.0,0.0,66,0.00,,,0.00,Wunderground v.1.15,2013-01-09 23:30:00,
2013-01-09 18:36:00,78.7,66.4,30.23,SE,126,0.0,0.0,66,0.00,,,0.00,Wunderground v.1.15,2013-01-09 23:36:00,
2013-01-09 18:42:00,78.5,66.6,30.23,SE,126,0.0,0.0,67,0.00,,,0.00,Wunderground v.1.15,2013-01-09 23:42:00,
2013-01-09 18:47:00,78.2,66.3,30.23,SE,126,0.0,0.0,67,0.00,,,0.00,Wunderground v.1.15,2013-01-09 23:47:00,
2013-01-09 18:52:00,77.8,66.4,30.23,SE,126,0.0,0.0,68,0.00,,,0.00,Wunderground v.1.15,2013-01-09 23:52:00,
2013-01-09 18:58:00,77.6,66.6,30.24,SE,126,0.0,0.0,69,0.00,,,0.00,Wunderground v.1.15,2013-01-09 23:58:00,
2013-01-09 19:03:00,77.3,66.3,30.24,SE,126,0.0,1.0,69,0.00,,,0.00,Wunderground v.1.15,2013-01-10 00:03:00,
2013-01-09 19:09:00,77.0,66.5,30.24,SE,126,0.0,1.0,70,0.00,,,0.00,Wunderground v.1.15,2013-01-10 00:09:00,
2013-01-09 19:14:00,76.7,66.2,30.24,SE,126,0.0,0.0,70,0.00,,,0.00,Wunderground v.1.15,2013-01-10 00:14:00,
2013-01-09 19:20:00,76.4,66.3,30.24,SE,126,0.0,0.0,71,0.00,,,0.00,Wunderground v.1.15,2013-01-10 00:20:00,
2013-01-09 19:25:00,76.2,66.1,30.24,SE,126,0.0,0.0,71,0.00,,,0.00,Wunderground v.1.15,2013-01-10 00:25:00,
2013-01-09 19:31:00,76.0,65.9,30.24,SE,126,0.0,0.0,71,0.00,,,0.00,Wunderground v.1.15,2013-01-10 00:31:00,
2013-01-09 19:36:00,75.8,65.7,30.25,SE,126,0.0,0.0,71,0.00,,,0.00,Wunderground v.1.15,2013-01-10 00:36:00,
2013-01-09 19:42:00,75.7,65.6,30.25,SE,126,0.0,0.0,71,0.00,,,0.00,Wunderground v.1.15,2013-01-10 00:42:00,
2013-01-09 19:47:00,75.6,65.9,30.25,SE,126,0.0,0.0,72,0.00,,,0.00,Wunderground v.1.15,2013-01-10 00:47:00,
2013-01-09 19:52:00,75.5,65.8,30.25,SE,126,0.0,0.0,72,0.00,,,0.00,Wunderground v.1.15,2013-01-10 00:52:00,
2013-01-09 19:57:00,75.4,65.7,30.25,SE,126,0.0,0.0,72,0.00,,,0.00,Wunderground v.1.15,2013-01-10 00:57:00,
2013-01-09 20:03:00,75.3,66.0,30.25,SE,126,0.0,0.0,73,0.00,,,0.00,Wunderground v.1.15,2013-01-10 01:03:00,
2013-01-09 20:09:00,75.3,66.0,30.25,ESE,123,0.0,3.0,73,0.00,,,0.00,Wunderground v.1.15,2013-01-10 01:09:00,
2013-01-09 20:15:00,75.4,65.7,30.25,ESE,123,0.0,0.0,72,0.00,,,0.00,Wunderground v.1.15,2013-01-10 01:15:00,
2013-01-09 20:20:00,75.4,66.1,30.25,ESE,123,0.0,0.0,73,0.00,,,0.00,Wunderground v.1.15,2013-01-10 01:20:00,
2013-01-09 20:26:00,75.4,66.1,30.25,ESE,123,0.0,0.0,73,0.00,,,0.00,Wunderground v.1.15,2013-01-10 01:26:00,
2013-01-09 20:32:00,75.3,66.0,30.25,ESE,113,0.0,0.0,73,0.00,,,0.00,Wunderground v.1.15,2013-01-10 01:32:00,
2013-01-09 20:37:00,75.4,66.5,30.25,ESE,108,0.0,0.0,74,0.00,,,0.00,Wunderground v.1.15,2013-01-10 01:37:00,
2013-01-09 20:43:00,75.5,67.0,30.25,ESE,116,0.0,1.0,75,0.00,,,0.00,Wunderground v.1.15,2013-01-10 01:43:00,
2013-01-09 20:49:00,75.4,67.3,30.25,South,186,0.0,1.0,76,0.00,,,0.00,Wunderground v.1.15,2013-01-10 01:49:00,
2013-01-09 20:54:00,75.2,67.1,30.26,ESE,121,0.0,2.0,76,0.00,,,0.00,Wunderground v.1.15,2013-01-10 01:54:00,
2013-01-09 21:00:00,75.0,67.3,30.26,ESE,107,1.0,1.0,77,0.00,,,0.00,Wunderground v.1.15,2013-01-10 02:00:00,
2013-01-09 21:06:00,74.7,67.4,30.26,ESE,121,0.0,3.0,78,0.00,,,0.00,Wunderground v.1.15,2013-01-10 02:06:00,
2013-01-09 21:11:00,74.6,67.7,30.27,ESE,111,1.0,1.0,79,0.00,,,0.00,Wunderground v.1.15,2013-01-10 02:11:00,
2013-01-09 21:17:00,74.4,67.5,30.27,ESE,111,0.0,1.0,79,0.00,,,0.00,Wunderground v.1.15,2013-01-10 02:17:00,
2013-01-09 21:23:00,74.3,67.7,30.27,ESE,111,0.0,0.0,80,0.00,,,0.00,Wunderground v.1.15,2013-01-10 02:23:00,
2013-01-09 21:29:00,74.1,67.9,30.27,SSE,148,1.0,4.0,81,0.00,,,0.00,Wunderground v.1.15,2013-01-10 02:29:00,
2013-01-09 21:34:00,74.0,68.2,30.27,ESE,119,1.0,1.0,82,0.00,,,0.00,Wunderground v.1.15,2013-01-10 02:34:00,
2013-01-09 21:40:00,74.0,68.2,30.27,SE,140,0.0,0.0,82,0.00,,,0.00,Wunderground v.1.15,2013-01-10 02:40:00,
2013-01-09 21:45:00,73.9,68.4,30.27,SE,140,0.0,0.0,83,0.00,,,0.00,Wunderground v.1.15,2013-01-10 02:45:00,
2013-01-09 21:51:00,73.8,68.7,30.28,SE,133,1.0,2.0,84,0.00,,,0.00,Wunderground v.1.15,2013-01-10 02:51:00,
2013-01-09 21:56:00,73.8,68.7,30.28,ESE,121,1.0,3.0,84,0.00,,,0.00,Wunderground v.1.15,2013-01-10 02:56:00,
2013-01-09 22:02:00,73.7,68.6,30.28,ESE,111,1.0,4.0,84,0.00,,,0.00,Wunderground v.1.15,2013-01-10 03:02:00,
2013-01-09 22:07:00,73.6,68.8,30.29,ESE,111,0.0,4.0,85,0.00,,,0.00,Wunderground v.1.15,2013-01-10 03:07:00,
2013-01-09 22:13:00,73.4,68.6,30.29,ESE,111,0.0,1.0,85,0.00,,,0.00,Wunderground v.1.15,2013-01-10 03:13:00,
2013-01-09 22:18:00,73.3,68.9,30.29,ESE,109,1.0,1.0,86,0.00,,,0.00,Wunderground v.1.15,2013-01-10 03:18:00,
2013-01-09 22:24:00,73.1,68.7,30.29,ESE,109,0.0,1.0,86,0.00,,,0.00,Wunderground v.1.15,2013-01-10 03:24:00,
2013-01-09 22:29:00,73.0,68.6,30.29,ESE,109,0.0,2.0,86,0.00,,,0.00,Wunderground v.1.15,2013-01-10 03:29:00,
2013-01-09 22:35:00,72.9,68.5,30.29,ESE,109,0.0,0.0,86,0.00,,,0.00,Wunderground v.1.15,2013-01-10 03:35:00,
2013-01-09 22:41:00,72.7,68.6,30.29,ESE,109,0.0,0.0,87,0.00,,,0.00,Wunderground v.1.15,2013-01-10 03:41:00,
2013-01-09 22:46:00,72.6,68.5,30.29,ESE,109,0.0,0.0,87,0.00,,,0.00,Wunderground v.1.15,2013-01-10 03:46:00,
2013-01-09 22:52:00,72.5,68.7,30.29,ESE,109,0.0,0.0,88,0.00,,,0.00,Wunderground v.1.15,2013-01-10 03:52:00,
2013-01-09 22:58:00,72.4,68.6,30.29,ESE,109,0.0,1.0,88,0.00,,,0.00,Wunderground v.1.15,2013-01-10 03:58:00,
2013-01-09 23:03:00,72.3,68.5,30.29,ESE,109,0.0,4.0,88,0.00,,,0.00,Wunderground v.1.15,2013-01-10 04:03:00,
2013-01-09 23:09:00,72.2,68.4,30.30,ESE,109,0.0,4.0,88,0.00,,,0.00,Wunderground v.1.15,2013-01-10 04:09:00,
2013-01-09 23:14:00,72.2,68.8,30.30,ESE,109,0.0,0.0,89,0.00,,,0.00,Wunderground v.1.15,2013-01-10 04:14:00,
2013-01-09 23:20:00,72.1,68.7,30.30,ESE,117,0.0,0.0,89,0.00,,,0.00,Wunderground v.1.15,2013-01-10 04:20:00,
2013-01-09 23:25:00,72.0,68.6,30.30,ESE,117,0.0,0.0,89,0.00,,,0.00,Wunderground v.1.15,2013-01-10 04:25:00,
2013-01-09 23:31:00,71.9,68.5,30.30,ESE,117,0.0,0.0,89,0.00,,,0.00,Wunderground v.1.15,2013-01-10 04:31:00,
2013-01-09 23:36:00,71.8,68.4,30.30,ESE,117,0.0,0.0,89,0.00,,,0.00,Wunderground v.1.15,2013-01-10 04:36:00,
2013-01-09 23:42:00,71.7,68.6,30.30,ESE,117,0.0,0.0,90,0.00,,,0.00,Wunderground v.1.15,2013-01-10 04:42:00,
2013-01-09 23:47:00,71.6,68.5,30.30,ESE,117,0.0,0.0,90,0.00,,,0.00,Wunderground v.1.15,2013-01-10 04:47:00,
2013-01-09 23:53:00,71.5,68.4,30.30,ESE,117,0.0,0.0,90,0.00,,,0.00,Wunderground v.1.15,2013-01-10 04:53:00,
2013-01-09 23:59:00,71.4,68.6,30.30,ESE,117,0.0,0.0,91,0.00,,,0.00,Wunderground v.1.15,2013-01-10 04:59:00,